Location: Waco, TX
(31.5480°N, 97.1670°W)
Time: 18:37:06
(UTC-06:00)

ISS - Pass Details

Date: 17 January 2019
Orbit: 404 x 410 km, 51.6° (Epoch: 24 January)

Event Time Altitude Azimuth Distance (km) Brightness Sun altitude
Rises 19:36:32 0° 198° (SSW) 2,312 0.4 -22.5°
Reaches altitude 10° 19:38:51 10° 184° (S) 1,458 -0.9 -23.0°
Enters shadow 19:39:01 11° 182° (S) 1,403 -1.0 -23.0°
Maximum altitude 19:41:32 23° 128° (SE) 903 - -23.6°
Drops below altitude 10° 19:44:14 10° 73° (ENE) 1,468 - -24.1°
Sets 19:46:34 0° 59° (ENE) 2,334 - -24.6°
